ANZ23 YSSY-NZAA

Flight info

Callsign ANZ23
Flight time 2h 23m
Altitude 37000
Route KEVIN7/16L EVONN L521 LUNBI
Aircraft B77W/H-SDE1E2E3FGHIJ2J3J4J5M1RWXY/LB1D1

Departure

Time 2026-05-05 10:56
Airport Sydney Kingsford Smith International Airport (YSSY)

Arrival

Time 2026-05-05 13:19
Airport Auckland International Airport (NZAA)
Time Latitude Longitude Altitude Speed Heading
2026-05-05 09:58 -33.93833 151.16832 27 ft 0 kts 70°
2026-05-05 10:37 -33.93838 151.16814 30 ft 4 kts 80°
2026-05-05 10:37 -33.93839 151.16782 31 ft 4 kts 101°
2026-05-05 10:37 -33.93830 151.16752 31 ft 4 kts 124°
2026-05-05 10:37 -33.93812 151.16730 31 ft 4 kts 158°
2026-05-05 10:38 -33.93808 151.16728 30 ft 0 kts 163°
2026-05-05 10:45 -33.93816 151.16731 31 ft 7 kts 163°
2026-05-05 10:46 -33.93900 151.16761 28 ft 15 kts 163°
2026-05-05 10:46 -33.94003 151.16798 29 ft 11 kts 163°
2026-05-05 10:46 -33.94046 151.16872 31 ft 13 kts 90°
2026-05-05 10:46 -33.94024 151.16990 30 ft 16 kts 74°
2026-05-05 10:47 -33.93990 151.17135 26 ft 20 kts 74°
2026-05-05 10:47 -33.93950 151.17314 24 ft 24 kts 75°
2026-05-05 10:47 -33.93904 151.17516 26 ft 25 kts 75°
2026-05-05 10:47 -33.93877 151.17632 23 ft 0 kts 74°
2026-05-05 10:48 -33.93874 151.17645 25 ft 4 kts 74°
2026-05-05 10:48 -33.93863 151.17697 27 ft 9 kts 80°
2026-05-05 10:48 -33.93890 151.17767 29 ft 11 kts 147°
2026-05-05 10:49 -33.93974 151.17798 27 ft 15 kts 167°
2026-05-05 10:49 -33.94093 151.17830 28 ft 21 kts 167°
2026-05-05 10:49 -33.94250 151.17871 29 ft 26 kts 167°
2026-05-05 10:49 -33.94444 151.17923 29 ft 30 kts 169°
2026-05-05 10:50 -33.94610 151.17903 29 ft 26 kts 171°
2026-05-05 10:50 -33.94807 151.17957 29 ft 32 kts 168°
2026-05-05 10:50 -33.95035 151.18017 30 ft 20 kts 167°
2026-05-05 10:50 -33.95097 151.18101 30 ft 17 kts 92°
2026-05-05 10:51 -33.95074 151.18276 30 ft 24 kts 79°
2026-05-05 10:51 -33.95036 151.18493 31 ft 24 kts 77°
2026-05-05 10:51 -33.95010 151.18625 30 ft 16 kts 77°
2026-05-05 10:51 -33.94998 151.18690 29 ft 0 kts 78°
2026-05-05 10:54 -33.94998 151.18692 29 ft 1 kts 78°
2026-05-05 10:55 -33.94995 151.18712 29 ft 5 kts 78°
2026-05-05 10:55 -33.94985 151.18777 29 ft 12 kts 88°
2026-05-05 10:55 -33.95042 151.18857 28 ft 14 kts 162°
2026-05-05 10:55 -33.95138 151.18883 27 ft 14 kts 168°
2026-05-05 10:56 -33.95302 151.18924 27 ft 60 kts 168°
2026-05-05 10:56 -33.96109 151.19126 38 ft 176 kts 168°
2026-05-05 10:56 -33.97523 151.19506 727 ft 219 kts 168°
2026-05-05 10:56 -33.98967 151.20236 2275 ft 244 kts 147°
2026-05-05 10:57 -34.00233 151.21744 3308 ft 253 kts 126°
2026-05-05 10:57 -34.01218 151.23549 4090 ft 264 kts 124°
2026-05-05 10:57 -34.02074 151.25493 4264 ft 261 kts 119°
2026-05-05 10:57 -34.03227 151.27122 4610 ft 255 kts 145°
2026-05-05 10:58 -34.04671 151.28367 4987 ft 255 kts 144°
2026-05-05 10:58 -34.06093 151.29716 5023 ft 265 kts 142°
2026-05-05 10:58 -34.07522 151.31115 5028 ft 264 kts 142°
2026-05-05 10:58 -34.08938 151.32506 5033 ft 260 kts 142°
2026-05-05 10:59 -34.10320 151.33864 5017 ft 258 kts 144°
2026-05-05 10:59 -34.11737 151.35252 5076 ft 261 kts 143°
2026-05-05 10:59 -34.13090 151.36698 5740 ft 268 kts 131°
2026-05-05 10:59 -34.13885 151.38824 6328 ft 295 kts 103°
2026-05-05 11:00 -34.14151 151.41405 6608 ft 328 kts 97°
2026-05-05 11:00 -34.14385 151.44269 7117 ft 352 kts 97°
2026-05-05 11:00 -34.14628 151.47246 8140 ft 358 kts 96°
2026-05-05 11:00 -34.14880 151.50270 9218 ft 367 kts 97°
2026-05-05 11:01 -34.15144 151.53364 10236 ft 374 kts 97°
2026-05-05 11:01 -34.15418 151.56508 11276 ft 377 kts 97°
2026-05-05 11:01 -34.15697 151.59675 12288 ft 382 kts 97°
2026-05-05 11:01 -34.15984 151.62891 13243 ft 390 kts 97°
2026-05-05 11:02 -34.16278 151.66184 14154 ft 398 kts 97°
2026-05-05 11:02 -34.16573 151.69486 15072 ft 402 kts 97°
2026-05-05 11:02 -34.16872 151.72853 16049 ft 406 kts 97°
2026-05-05 11:02 -34.17175 151.76273 16916 ft 412 kts 96°
2026-05-05 11:03 -34.17482 151.79743 17786 ft 418 kts 96°
2026-05-05 11:03 -34.17791 151.83256 18682 ft 423 kts 96°
2026-05-05 11:03 -34.18102 151.86804 19479 ft 428 kts 96°
2026-05-05 11:03 -34.18417 151.90412 20231 ft 434 kts 96°
2026-05-05 11:04 -34.18735 151.94061 20948 ft 440 kts 96°
2026-05-05 11:04 -34.19057 151.97767 21645 ft 447 kts 95°
2026-05-05 11:04 -34.19383 152.01533 22356 ft 453 kts 95°
2026-05-05 11:04 -34.19908 152.05254 23023 ft 459 kts 105°
2026-05-05 11:05 -34.20899 152.08944 23668 ft 465 kts 110°
2026-05-05 11:05 -34.22037 152.12639 24238 ft 471 kts 111°
2026-05-05 11:05 -34.23213 152.16358 24801 ft 477 kts 111°
2026-05-05 11:05 -34.24393 152.20132 25348 ft 482 kts 110°
2026-05-05 11:06 -34.25566 152.23975 25884 ft 488 kts 109°
2026-05-05 11:06 -34.26723 152.27859 26413 ft 494 kts 109°
2026-05-05 11:06 -34.27875 152.31794 26920 ft 499 kts 109°
2026-05-05 11:06 -34.29030 152.35782 27428 ft 505 kts 108°
2026-05-05 11:07 -34.30175 152.39760 27919 ft 510 kts 108°
2026-05-05 11:07 -34.31343 152.43829 28397 ft 515 kts 108°
2026-05-05 11:07 -34.32139 152.46603 28724 ft 518 kts 108°
2026-05-05 11:07 -34.33716 152.52100 29334 ft 525 kts 108°
2026-05-05 11:08 -34.34511 152.54874 29545 ft 530 kts 108°
2026-05-05 11:08 -34.35731 152.59130 29885 ft 536 kts 108°
2026-05-05 11:08 -34.36957 152.63413 30287 ft 540 kts 108°
2026-05-05 11:08 -34.38189 152.67719 30647 ft 543 kts 108°
2026-05-05 11:09 -34.39431 152.72066 31011 ft 546 kts 108°
2026-05-05 11:09 -34.40675 152.76430 31304 ft 550 kts 108°
2026-05-05 11:09 -34.41927 152.80827 31604 ft 554 kts 108°
2026-05-05 11:09 -34.43186 152.85255 31817 ft 558 kts 107°
2026-05-05 11:10 -34.44450 152.89710 32107 ft 561 kts 107°
2026-05-05 11:10 -34.45718 152.94185 32502 ft 560 kts 107°
2026-05-05 11:10 -34.46965 152.98595 32932 ft 559 kts 107°
2026-05-05 11:10 -34.48225 153.03052 33337 ft 559 kts 107°
2026-05-05 11:11 -34.49489 153.07535 33700 ft 560 kts 107°
2026-05-05 11:11 -34.50746 153.12000 34058 ft 560 kts 107°
2026-05-05 11:11 -34.52004 153.16478 34299 ft 563 kts 107°
2026-05-05 11:11 -34.53271 153.20993 34525 ft 564 kts 107°
2026-05-05 11:12 -34.54533 153.25497 34863 ft 563 kts 107°
2026-05-05 11:12 -34.55772 153.29928 35239 ft 561 kts 107°
2026-05-05 11:12 -34.57024 153.34408 35604 ft 559 kts 107°
2026-05-05 11:12 -34.58285 153.38931 35901 ft 559 kts 107°
2026-05-05 11:13 -34.59511 153.43337 36187 ft 559 kts 107°
2026-05-05 11:13 -34.60754 153.47810 36461 ft 559 kts 107°
2026-05-05 11:13 -34.61994 153.52277 36743 ft 558 kts 107°
2026-05-05 11:13 -34.63232 153.56746 37035 ft 558 kts 107°
2026-05-05 11:14 -34.64471 153.61229 37131 ft 561 kts 107°
2026-05-05 11:14 -34.66955 153.70231 37149 ft 560 kts 107°
2026-05-05 11:15 -34.69399 153.79118 37160 ft 558 kts 107°
2026-05-05 11:15 -34.71875 153.88153 37175 ft 566 kts 107°
2026-05-05 11:16 -34.74369 153.97284 37169 ft 571 kts 107°
2026-05-05 11:16 -34.76859 154.06429 37164 ft 574 kts 107°
2026-05-05 11:17 -34.79367 154.15667 37164 ft 575 kts 107°
2026-05-05 11:17 -34.81869 154.24916 37156 ft 574 kts 107°
2026-05-05 11:18 -34.84358 154.34150 37156 ft 572 kts 107°
2026-05-05 11:18 -34.86829 154.43349 37154 ft 571 kts 107°
2026-05-05 11:19 -34.89276 154.52494 37155 ft 569 kts 107°
2026-05-05 11:19 -34.91723 154.61664 37156 ft 568 kts 107°
2026-05-05 11:20 -34.94164 154.70846 37152 ft 568 kts 107°
2026-05-05 11:20 -34.96579 154.79961 37153 ft 568 kts 107°
2026-05-05 11:21 -34.99007 154.89157 37151 ft 568 kts 107°
2026-05-05 11:21 -35.01421 154.98330 37158 ft 568 kts 107°
2026-05-05 11:22 -35.03820 155.07475 37150 ft 568 kts 107°
2026-05-05 11:22 -35.06222 155.16671 37167 ft 569 kts 107°
2026-05-05 11:23 -35.08621 155.25888 37155 ft 569 kts 107°
2026-05-05 11:23 -35.11010 155.35097 37148 ft 568 kts 107°
2026-05-05 11:24 -35.13390 155.44304 37146 ft 567 kts 107°
2026-05-05 11:24 -35.15744 155.53443 37144 ft 567 kts 107°
2026-05-05 11:25 -35.18106 155.62645 37142 ft 567 kts 107°
2026-05-05 11:25 -35.20462 155.71854 37145 ft 566 kts 107°
2026-05-05 11:26 -35.22805 155.81046 37139 ft 566 kts 106°
2026-05-05 11:26 -35.25139 155.90236 37142 ft 566 kts 106°
2026-05-05 11:27 -35.27468 155.99439 37132 ft 566 kts 106°
2026-05-05 11:27 -35.29790 156.08646 37138 ft 565 kts 106°
2026-05-05 11:28 -35.32088 156.17794 37137 ft 566 kts 106°
2026-05-05 11:28 -35.34394 156.27005 37127 ft 566 kts 106°
2026-05-05 11:29 -35.36698 156.36237 37135 ft 565 kts 106°
2026-05-05 11:29 -35.38991 156.45464 37130 ft 565 kts 106°
2026-05-05 11:30 -35.41262 156.54633 37128 ft 565 kts 106°
2026-05-05 11:30 -35.43538 156.63855 37127 ft 564 kts 106°
2026-05-05 11:31 -35.45802 156.73064 37127 ft 563 kts 106°
2026-05-05 11:31 -35.48058 156.82273 37122 ft 563 kts 106°
2026-05-05 11:32 -35.50302 156.91465 37115 ft 562 kts 106°
2026-05-05 11:32 -35.52524 157.00603 37123 ft 561 kts 105°
2026-05-05 11:33 -35.54752 157.09799 37119 ft 561 kts 105°
2026-05-05 11:33 -35.56976 157.19012 37117 ft 561 kts 105°
2026-05-05 11:34 -35.59172 157.28142 37115 ft 560 kts 105°
2026-05-05 11:34 -35.61371 157.37317 37115 ft 559 kts 105°
2026-05-05 11:35 -35.63563 157.46501 37114 ft 559 kts 105°
2026-05-05 11:35 -35.65748 157.55685 37088 ft 559 kts 105°
2026-05-05 11:36 -35.67907 157.64800 37108 ft 558 kts 105°
2026-05-05 11:36 -35.70073 157.73972 37104 ft 558 kts 105°
2026-05-05 11:37 -35.72231 157.83151 37102 ft 558 kts 105°
2026-05-05 11:37 -35.74382 157.92330 37101 ft 557 kts 105°
2026-05-05 11:38 -35.76521 158.01494 37100 ft 557 kts 105°
2026-05-05 11:38 -35.78568 158.10675 37099 ft 555 kts 101°
2026-05-05 11:39 -35.80192 158.19969 37105 ft 555 kts 100°
2026-05-05 11:39 -35.81727 158.29234 37092 ft 554 kts 99°
2026-05-05 11:40 -35.83282 158.38524 37097 ft 554 kts 100°
2026-05-05 11:40 -35.84857 158.47819 37093 ft 554 kts 100°
2026-05-05 11:41 -35.86432 158.57110 37096 ft 553 kts 100°
2026-05-05 11:41 -35.87998 158.66401 37090 ft 553 kts 100°
2026-05-05 11:42 -35.89556 158.75712 37091 ft 553 kts 100°
2026-05-05 11:42 -35.91105 158.85013 37090 ft 553 kts 99°
2026-05-05 11:43 -35.92638 158.94270 37085 ft 552 kts 99°
2026-05-05 11:43 -35.94168 159.03551 37087 ft 552 kts 99°
2026-05-05 11:44 -35.95691 159.12833 37084 ft 551 kts 99°
2026-05-05 11:44 -35.97206 159.22119 37074 ft 550 kts 99°
2026-05-05 11:45 -35.98711 159.31393 37085 ft 549 kts 99°
2026-05-05 11:45 -36.00195 159.40582 37085 ft 549 kts 99°
2026-05-05 11:46 -36.01683 159.49840 37088 ft 548 kts 98°
2026-05-05 11:46 -36.03161 159.59085 37088 ft 548 kts 98°
2026-05-05 11:47 -36.04630 159.68320 37071 ft 547 kts 98°
2026-05-05 11:47 -36.06092 159.77563 37090 ft 547 kts 98°
2026-05-05 11:48 -36.08261 159.91356 37082 ft 546 kts 98°
2026-05-05 11:48 -36.09699 160.00569 37081 ft 545 kts 98°
2026-05-05 11:49 -36.11129 160.09777 37094 ft 545 kts 98°
2026-05-05 11:49 -36.12553 160.18989 37094 ft 544 kts 98°
2026-05-05 11:50 -36.13966 160.28184 37096 ft 544 kts 98°
2026-05-05 11:50 -36.15371 160.37374 37088 ft 543 kts 98°
2026-05-05 11:51 -36.16758 160.46498 37096 ft 543 kts 98°
2026-05-05 11:51 -36.18146 160.55677 37084 ft 543 kts 98°
2026-05-05 11:52 -36.19532 160.64890 37092 ft 544 kts 98°
2026-05-05 11:52 -36.20914 160.74128 37098 ft 545 kts 98°
2026-05-05 11:53 -36.22283 160.83333 37101 ft 546 kts 98°
2026-05-05 11:53 -36.23654 160.92599 37111 ft 547 kts 99°
2026-05-05 11:54 -36.25021 161.01887 37109 ft 548 kts 99°
2026-05-05 11:54 -36.26381 161.11182 37107 ft 548 kts 99°
2026-05-05 11:55 -36.27505 161.18907 37110 ft 548 kts 98°
2026-05-05 11:55 -36.28858 161.28252 37122 ft 548 kts 99°
2026-05-05 11:56 -36.30190 161.37496 37115 ft 548 kts 99°
2026-05-05 11:56 -36.31525 161.46825 37117 ft 548 kts 99°
2026-05-05 11:57 -36.32849 161.56127 37107 ft 547 kts 99°
2026-05-05 11:57 -36.34153 161.65340 37124 ft 547 kts 99°
2026-05-05 11:58 -36.35465 161.74666 37119 ft 548 kts 99°
2026-05-05 11:58 -36.36767 161.83977 37115 ft 548 kts 99°
2026-05-05 11:59 -36.38063 161.93295 37123 ft 548 kts 99°
2026-05-05 11:59 -36.39350 162.02612 37133 ft 548 kts 99°
2026-05-05 12:00 -36.40625 162.11892 37127 ft 548 kts 98°
2026-05-05 12:00 -36.41901 162.21237 37139 ft 548 kts 98°
2026-05-05 12:01 -36.43171 162.30584 37146 ft 549 kts 99°
2026-05-05 12:01 -36.44436 162.39958 37142 ft 550 kts 99°
2026-05-05 12:02 -36.45691 162.49324 37141 ft 550 kts 98°
2026-05-05 12:02 -36.46934 162.58645 37144 ft 551 kts 98°
2026-05-05 12:03 -36.48180 162.68051 37149 ft 551 kts 99°
2026-05-05 12:03 -36.49420 162.77478 37154 ft 552 kts 98°
2026-05-05 12:04 -36.50653 162.86899 37168 ft 553 kts 98°
2026-05-05 12:04 -36.51874 162.96292 37183 ft 553 kts 98°
2026-05-05 12:05 -36.53095 163.05748 37166 ft 553 kts 98°
2026-05-05 12:05 -36.54307 163.15213 37173 ft 553 kts 98°
2026-05-05 12:06 -36.55509 163.24663 37175 ft 553 kts 98°
2026-05-05 12:06 -36.56704 163.34117 37173 ft 553 kts 98°
2026-05-05 12:07 -36.57893 163.43583 37184 ft 553 kts 98°
2026-05-05 12:07 -36.59066 163.52982 37186 ft 553 kts 98°
2026-05-05 12:08 -36.60238 163.62441 37183 ft 553 kts 98°
2026-05-05 12:08 -36.61405 163.71918 37189 ft 553 kts 98°
2026-05-05 12:09 -36.62563 163.81390 37195 ft 553 kts 98°
2026-05-05 12:09 -36.63716 163.90881 37196 ft 554 kts 98°
2026-05-05 12:10 -36.64854 164.00314 37206 ft 555 kts 98°
2026-05-05 12:10 -36.65996 164.09844 37214 ft 557 kts 98°
2026-05-05 12:11 -36.67135 164.19421 37217 ft 559 kts 98°
2026-05-05 12:11 -36.68271 164.29039 37227 ft 561 kts 98°
2026-05-05 12:12 -36.69396 164.38630 37229 ft 562 kts 99°
2026-05-05 12:12 -36.70521 164.48292 37212 ft 563 kts 99°
2026-05-05 12:13 -36.71639 164.57956 37217 ft 563 kts 99°
2026-05-05 12:13 -36.72744 164.67592 37235 ft 563 kts 99°
2026-05-05 12:14 -36.73844 164.77245 37241 ft 561 kts 99°
2026-05-05 12:14 -36.74926 164.86817 37224 ft 559 kts 99°
2026-05-05 12:15 -36.76001 164.96387 37229 ft 556 kts 99°
2026-05-05 12:15 -36.77064 165.05929 37241 ft 555 kts 99°
2026-05-05 12:16 -36.78113 165.15421 37223 ft 545 kts 99°
2026-05-05 12:16 -36.79138 165.24760 37242 ft 542 kts 99°
2026-05-05 12:17 -36.80150 165.34038 37246 ft 546 kts 99°
2026-05-05 12:17 -36.81172 165.43468 37262 ft 551 kts 99°
2026-05-05 12:18 -36.82191 165.52960 37264 ft 553 kts 99°
2026-05-05 12:18 -36.83207 165.62500 37255 ft 554 kts 98°
2026-05-05 12:19 -36.84215 165.72044 37260 ft 553 kts 98°
2026-05-05 12:19 -36.85204 165.81488 37258 ft 548 kts 99°
2026-05-05 12:20 -36.86177 165.90844 37260 ft 540 kts 99°
2026-05-05 12:20 -36.87137 166.00140 37270 ft 541 kts 98°
2026-05-05 12:21 -36.88096 166.09483 37279 ft 542 kts 98°
2026-05-05 12:21 -36.89045 166.18825 37283 ft 542 kts 98°
2026-05-05 12:22 -36.89988 166.28176 37273 ft 540 kts 98°
2026-05-05 12:22 -36.90918 166.37478 37282 ft 539 kts 98°
2026-05-05 12:23 -36.91835 166.46720 37284 ft 538 kts 98°
2026-05-05 12:23 -36.92748 166.55996 37300 ft 536 kts 98°
2026-05-05 12:24 -36.93649 166.65231 37291 ft 534 kts 98°
2026-05-05 12:24 -36.94540 166.74437 37286 ft 533 kts 98°
2026-05-05 12:25 -36.95418 166.83579 37292 ft 532 kts 98°
2026-05-05 12:25 -36.96295 166.92780 37297 ft 532 kts 98°
2026-05-05 12:26 -36.97163 167.01965 37297 ft 532 kts 98°
2026-05-05 12:26 -36.98023 167.11149 37305 ft 532 kts 98°
2026-05-05 12:27 -36.98878 167.20351 37302 ft 533 kts 98°
2026-05-05 12:27 -36.99726 167.29555 37315 ft 533 kts 98°
2026-05-05 12:28 -37.00564 167.38774 37316 ft 533 kts 98°
2026-05-05 12:28 -37.01398 167.47980 37318 ft 532 kts 98°
2026-05-05 12:29 -37.02233 167.57178 37317 ft 532 kts 98°
2026-05-05 12:29 -37.03066 167.66383 37317 ft 532 kts 98°
2026-05-05 12:30 -37.03890 167.75525 37320 ft 531 kts 98°
2026-05-05 12:30 -37.04623 167.84732 37327 ft 530 kts 98°
2026-05-05 12:31 -37.05414 167.93917 37318 ft 530 kts 98°
2026-05-05 12:31 -37.06225 168.03022 37334 ft 529 kts 98°
2026-05-05 12:32 -37.07017 168.12176 37329 ft 528 kts 98°
2026-05-05 12:32 -37.07788 168.21317 37327 ft 528 kts 98°
2026-05-05 12:33 -37.08548 168.30466 37335 ft 527 kts 98°
2026-05-05 12:33 -37.09300 168.39584 37330 ft 526 kts 98°
2026-05-05 12:34 -37.10047 168.48726 37329 ft 526 kts 98°
2026-05-05 12:34 -37.10781 168.57776 37342 ft 525 kts 98°
2026-05-05 12:35 -37.11512 168.66891 37334 ft 525 kts 98°
2026-05-05 12:35 -37.12235 168.75993 37347 ft 525 kts 97°
2026-05-05 12:36 -37.12952 168.85096 37342 ft 524 kts 97°
2026-05-05 12:36 -37.13660 168.94186 37348 ft 524 kts 97°
2026-05-05 12:37 -37.14360 169.03268 37355 ft 523 kts 97°
2026-05-05 12:37 -37.15054 169.12354 37343 ft 523 kts 97°
2026-05-05 12:38 -37.15741 169.21451 37352 ft 523 kts 97°
2026-05-05 12:38 -37.16420 169.30528 37347 ft 524 kts 97°
2026-05-05 12:39 -37.17094 169.39628 37362 ft 524 kts 97°
2026-05-05 12:39 -37.17756 169.48670 37358 ft 524 kts 97°
2026-05-05 12:40 -37.18415 169.57770 37362 ft 523 kts 97°
2026-05-05 12:40 -37.19067 169.66870 37361 ft 523 kts 97°
2026-05-05 12:41 -37.19711 169.75943 37368 ft 522 kts 97°
2026-05-05 12:41 -37.20347 169.85016 37374 ft 522 kts 97°
2026-05-05 12:42 -37.20870 169.92552 37369 ft 522 kts 97°
2026-05-05 12:42 -37.21594 170.03099 37375 ft 521 kts 97°
2026-05-05 12:43 -37.22209 170.12159 37373 ft 521 kts 97°
2026-05-05 12:43 -37.22719 170.19763 37387 ft 521 kts 97°
2026-05-05 12:44 -37.23320 170.28819 37373 ft 520 kts 96°
2026-05-05 12:44 -37.23910 170.37809 37379 ft 519 kts 96°
2026-05-05 12:45 -37.24497 170.46861 37380 ft 519 kts 96°
2026-05-05 12:45 -37.25076 170.55891 37390 ft 518 kts 96°
2026-05-05 12:46 -37.25645 170.64857 37383 ft 518 kts 96°
2026-05-05 12:46 -37.25745 170.73916 37385 ft 518 kts 89°
2026-05-05 12:47 -37.25362 170.82941 37382 ft 516 kts 88°
2026-05-05 12:47 -37.24987 170.91740 37390 ft 501 kts 89°
2026-05-05 12:48 -37.24697 171.00455 37389 ft 500 kts 89°
2026-05-05 12:48 -37.24438 171.09278 37397 ft 509 kts 89°
2026-05-05 12:49 -37.24175 171.18061 37374 ft 498 kts 89°
2026-05-05 12:49 -37.23906 171.26676 37394 ft 497 kts 89°
2026-05-05 12:50 -37.23627 171.35351 37395 ft 498 kts 89°
2026-05-05 12:50 -37.23340 171.44054 37396 ft 498 kts 89°
2026-05-05 12:51 -37.23046 171.52759 37402 ft 499 kts 89°
2026-05-05 12:51 -37.22747 171.61454 37402 ft 499 kts 89°
2026-05-05 12:52 -37.22440 171.70161 37406 ft 499 kts 89°
2026-05-05 12:52 -37.22128 171.78870 37397 ft 499 kts 89°
2026-05-05 12:53 -37.21811 171.87515 37400 ft 499 kts 89°
2026-05-05 12:53 -37.21648 171.91909 36542 ft 510 kts 89°
2026-05-05 12:53 -37.21482 171.96328 36029 ft 503 kts 89°
2026-05-05 12:54 -37.21152 172.04914 35001 ft 485 kts 88°
2026-05-05 12:54 -37.20989 172.09123 34509 ft 481 kts 88°
2026-05-05 12:54 -37.20826 172.13295 33970 ft 478 kts 88°
2026-05-05 12:55 -37.20663 172.17441 33448 ft 474 kts 88°
2026-05-05 12:55 -37.20500 172.21554 32957 ft 469 kts 88°
2026-05-05 12:55 -37.20337 172.25623 32477 ft 465 kts 89°
2026-05-05 12:55 -37.20174 172.29662 31999 ft 461 kts 89°
2026-05-05 12:56 -37.20011 172.33656 31540 ft 457 kts 89°
2026-05-05 12:56 -37.19849 172.37591 31082 ft 454 kts 89°
2026-05-05 12:56 -37.19687 172.41518 30633 ft 451 kts 89°
2026-05-05 12:56 -37.19523 172.45437 30131 ft 448 kts 89°
2026-05-05 12:57 -37.19360 172.49328 29593 ft 444 kts 88°
2026-05-05 12:57 -37.19197 172.53180 29118 ft 440 kts 88°
2026-05-05 12:57 -37.19034 172.57002 28624 ft 437 kts 88°
2026-05-05 12:57 -37.18870 172.60796 28095 ft 434 kts 88°
2026-05-05 12:58 -37.18707 172.64566 27592 ft 432 kts 88°
2026-05-05 12:58 -37.18544 172.68309 27187 ft 427 kts 88°
2026-05-05 12:58 -37.18381 172.71999 26801 ft 422 kts 88°
2026-05-05 12:58 -37.18219 172.75665 26347 ft 419 kts 88°
2026-05-05 12:59 -37.18056 172.79302 25904 ft 417 kts 88°
2026-05-05 12:59 -37.17894 172.82925 25465 ft 414 kts 88°
2026-05-05 12:59 -37.17731 172.86534 25013 ft 412 kts 87°
2026-05-05 13:00 -37.17406 172.93639 24138 ft 410 kts 87°
2026-05-05 13:00 -37.17242 172.97202 23637 ft 408 kts 87°
2026-05-05 13:01 -37.16750 173.07759 22259 ft 399 kts 86°
2026-05-05 13:01 -37.16586 173.11224 21813 ft 396 kts 86°
2026-05-05 13:01 -37.16422 173.14659 21387 ft 393 kts 86°
2026-05-05 13:01 -37.16259 173.18067 20971 ft 390 kts 85°
2026-05-05 13:02 -37.16098 173.21410 20558 ft 388 kts 85°
2026-05-05 13:02 -37.15935 173.24774 20125 ft 385 kts 85°
2026-05-05 13:02 -37.15772 173.28121 19702 ft 383 kts 85°
2026-05-05 13:02 -37.15609 173.31438 19289 ft 380 kts 84°
2026-05-05 13:03 -37.15447 173.34737 18863 ft 378 kts 84°
2026-05-05 13:03 -37.15285 173.38019 18397 ft 376 kts 84°
2026-05-05 13:03 -37.15125 173.41233 17919 ft 362 kts 84°
2026-05-05 13:03 -37.14970 173.44340 17504 ft 354 kts 84°
2026-05-05 13:04 -37.14803 173.47405 17105 ft 352 kts 84°
2026-05-05 13:04 -37.14621 173.50454 16706 ft 349 kts 83°
2026-05-05 13:04 -37.14437 173.53490 16300 ft 347 kts 83°
2026-05-05 13:04 -37.14255 173.56498 15903 ft 345 kts 83°
2026-05-05 13:05 -37.14075 173.59483 15512 ft 343 kts 83°
2026-05-05 13:05 -37.13898 173.62421 15126 ft 341 kts 84°
2026-05-05 13:05 -37.13719 173.65379 14741 ft 340 kts 84°
2026-05-05 13:05 -37.13541 173.68324 14349 ft 338 kts 83°
2026-05-05 13:06 -37.13364 173.71259 13926 ft 337 kts 84°
2026-05-05 13:06 -37.13185 173.74176 13509 ft 335 kts 83°
2026-05-05 13:06 -37.13007 173.77080 13082 ft 333 kts 83°
2026-05-05 13:06 -37.12826 173.80015 12383 ft 341 kts 83°
2026-05-05 13:07 -37.12644 173.82978 11913 ft 340 kts 83°
2026-05-05 13:07 -37.12463 173.85933 11495 ft 338 kts 83°
2026-05-05 13:07 -37.12285 173.88818 11081 ft 324 kts 83°
2026-05-05 13:07 -37.12114 173.91580 10693 ft 310 kts 83°
2026-05-05 13:08 -37.11949 173.94205 10462 ft 295 kts 83°
2026-05-05 13:08 -37.11791 173.96714 10317 ft 280 kts 83°
2026-05-05 13:08 -37.11642 173.99059 10176 ft 261 kts 83°
2026-05-05 13:08 -37.11501 174.01269 10082 ft 260 kts 82°
2026-05-05 13:09 -37.11349 174.03595 9985 ft 276 kts 83°
2026-05-05 13:09 -37.11190 174.06054 9644 ft 286 kts 83°
2026-05-05 13:09 -37.11030 174.08552 9339 ft 287 kts 83°
2026-05-05 13:09 -37.10874 174.10995 9000 ft 276 kts 83°
2026-05-05 13:10 -37.10725 174.13344 8688 ft 264 kts 83°
2026-05-05 13:10 -37.10581 174.15587 8396 ft 254 kts 82°
2026-05-05 13:10 -37.10440 174.17779 8129 ft 255 kts 82°
2026-05-05 13:10 -37.10290 174.20048 7861 ft 266 kts 82°
2026-05-05 13:11 -37.10141 174.22361 7558 ft 265 kts 82°
2026-05-05 13:11 -37.09996 174.24610 7259 ft 259 kts 82°
2026-05-05 13:11 -37.09852 174.26842 6958 ft 250 kts 82°
2026-05-05 13:11 -37.09713 174.28959 6663 ft 247 kts 82°
2026-05-05 13:12 -37.09567 174.31151 6389 ft 258 kts 82°
2026-05-05 13:12 -37.09415 174.33427 6100 ft 265 kts 83°
2026-05-05 13:12 -37.09260 174.35741 5782 ft 268 kts 82°
2026-05-05 13:12 -37.09105 174.38063 5457 ft 264 kts 82°
2026-05-05 13:13 -37.08956 174.40309 5149 ft 253 kts 82°
2026-05-05 13:13 -37.08811 174.42483 4877 ft 249 kts 82°
2026-05-05 13:13 -37.08665 174.44643 4593 ft 248 kts 82°
2026-05-05 13:13 -37.08522 174.46760 4336 ft 245 kts 82°
2026-05-05 13:14 -37.08382 174.48846 4229 ft 236 kts 82°
2026-05-05 13:14 -37.08245 174.50869 4074 ft 226 kts 81°
2026-05-05 13:14 -37.08116 174.52779 3856 ft 214 kts 81°
2026-05-05 13:14 -37.07854 174.54541 3602 ft 200 kts 68°
2026-05-05 13:15 -37.07396 174.56182 3455 ft 199 kts 67°
2026-05-05 13:15 -37.06935 174.57800 3195 ft 193 kts 67°
2026-05-05 13:15 -37.06513 174.59338 2974 ft 182 kts 67°
2026-05-05 13:15 -37.06103 174.60818 2733 ft 176 kts 67°
2026-05-05 13:16 -37.05723 174.62205 2498 ft 165 kts 67°
2026-05-05 13:16 -37.05367 174.63494 2308 ft 150 kts 68°
2026-05-05 13:16 -37.05041 174.64679 2083 ft 137 kts 68°
2026-05-05 13:16 -37.04725 174.65824 1926 ft 142 kts 68°
2026-05-05 13:17 -37.04406 174.66986 1735 ft 137 kts 68°
2026-05-05 13:17 -37.04102 174.68086 1527 ft 131 kts 69°
2026-05-05 13:17 -37.03809 174.69152 1361 ft 129 kts 69°
2026-05-05 13:17 -37.03511 174.70235 1188 ft 132 kts 70°
2026-05-05 13:18 -37.03212 174.71321 1018 ft 133 kts 69°
2026-05-05 13:18 -37.02912 174.72410 824 ft 135 kts 71°
2026-05-05 13:18 -37.02605 174.73529 658 ft 137 kts 71°
2026-05-05 13:18 -37.02294 174.74658 454 ft 136 kts 70°
2026-05-05 13:19 -37.01985 174.75782 277 ft 137 kts 71°
2026-05-05 13:19 -37.01670 174.76923 100 ft 140 kts 71°
2026-05-05 13:19 -37.01362 174.78041 28 ft 126 kts 71°
2026-05-05 13:19 -37.01170 174.78739 28 ft 41 kts 71°
2026-05-05 13:20 -37.01040 174.78983 26 ft 21 kts 43°
2026-05-05 13:20 -37.00949 174.79088 30 ft 21 kts 42°
2026-05-05 13:20 -37.00870 174.79132 29 ft 14 kts 349°
2026-05-05 13:20 -37.00801 174.79062 26 ft 4 kts 291°
2026-05-05 13:21 -37.00808 174.78988 28 ft 13 kts 248°
2026-05-05 13:21 -37.00864 174.78833 28 ft 27 kts 245°
2026-05-05 13:21 -37.00925 174.78623 32 ft 20 kts 251°
2026-05-05 13:21 -37.00972 174.78457 30 ft 20 kts 250°
2026-05-05 13:22 -37.00997 174.78310 31 ft 17 kts 255°
2026-05-05 13:22 -37.01030 174.78180 31 ft 15 kts 258°
2026-05-05 13:22 -37.00975 174.78086 29 ft 13 kts 335°
2026-05-05 13:22 -37.00896 174.78084 30 ft 12 kts 28°
2026-05-05 13:23 -37.00852 174.78125 31 ft 6 kts 40°
2026-05-05 13:23 -37.00838 174.78139 31 ft 0 kts 39°